• In Austria
  • List of Countries
  • For 7 days
  • Water Temperature
  • Satellite Maps
  • Weather Map
  • News
  • Weather Widgets
  • user-avatar
    Login

    Hourly Weather Chinsali

    Today, 16 October, Tuesday

    Time Temperature Precipitation Wind Pressure Humidity
    00:00 +23°C° 0 mm 2 mps 647 mmHg 45%
    01:00 +21°C° 0 mm 2 mps 646 mmHg 49%
    02:00 +22°C° 0 mm 1 mps 646 mmHg 52%
    03:00 +21°C° 0 mm 1 mps 646 mmHg 54%
    04:00 +20°C° 0 mm 1 mps 646 mmHg 57%
    05:00 +20°C° 0 mm 1 mps 646 mmHg 59%
    06:00 +22°C° 0 mm 1 mps 647 mmHg 52%
    07:00 +25°C° 0 mm 2 mps 648 mmHg 45%
    08:00 +28°C° 0 mm 2 mps 649 mmHg 38%
    09:00 +30°C° 0 mm 2 mps 649 mmHg 32%
    10:00 +32°C° 0 mm 2 mps 649 mmHg 25%
    11:00 +36°C° 0 mm 2 mps 650 mmHg 19%
    12:00 +36°C° 0 mm 2 mps 649 mmHg 19%
    13:00 +36°C° 0 mm 3 mps 648 mmHg 18%
    14:00 +35°C° 0 mm 3 mps 647 mmHg 20%
    15:00 +34°C° 0 mm 3 mps 647 mmHg 21%
    16:00 +34°C° 0 mm 3 mps 647 mmHg 23%
    17:00 +33°C° 0 mm 3 mps 647 mmHg 24%
    18:00 +31°C° 0 mm 3 mps 647 mmHg 26%
    19:00 +29°C° 0 mm 3 mps 647 mmHg 28%
    20:00 +28°C° 0 mm 3 mps 647 mmHg 30%
    21:00 +27°C° 0 mm 3 mps 647 mmHg 33%
    22:00 +26°C° 0 mm 2 mps 647 mmHg 36%
    23:00 +25°C° 0 mm 2 mps 647 mmHg 39%

    Tomorrow, 17 October, Wednesday

    Time Temperature Precipitation Wind Pressure Humidity
    00:00 +24°C° 0 mm 2 mps 647 mmHg 45%
    01:00 +23°C° 0 mm 2 mps 646 mmHg 50%
    02:00 +21°C° 0 mm 3 mps 646 mmHg 55%
    03:00 +21°C° 0 mm 3 mps 646 mmHg 60%
    04:00 +20°C° 0 mm 2 mps 646 mmHg 65%
    05:00 +20°C° 0 mm 2 mps 646 mmHg 69%
    06:00 +22°C° 0 mm 3 mps 647 mmHg 61%
    07:00 +24°C° 0 mm 3 mps 647 mmHg 53%
    08:00 +26°C° 0 mm 3 mps 648 mmHg 45%
    09:00 +28°C° 0 mm 3 mps 648 mmHg 38%
    10:00 +31°C° 0 mm 3 mps 649 mmHg 31%
    11:00 +34°C° 0 mm 3 mps 649 mmHg 24%
    12:00 +34°C° 0 mm 3 mps 648 mmHg 23%
    13:00 +35°C° 0 mm 2 mps 647 mmHg 22%
    14:00 +35°C° 0 mm 2 mps 646 mmHg 21%
    15:00 +34°C° 0 mm 2 mps 646 mmHg 22%
    16:00 +32°C° 0 mm 2 mps 646 mmHg 23%
    17:00 +31°C° 0 mm 2 mps 645 mmHg 24%
    18:00 +31°C° 0 mm 2 mps 646 mmHg 26%
    19:00 +30°C° 0 mm 3 mps 646 mmHg 28%
    20:00 +29°C° 0 mm 3 mps 646 mmHg 29%
    21:00 +28°C° 0 mm 3 mps 646 mmHg 31%
    22:00 +26°C° 0 mm 3 mps 646 mmHg 33%
    23:00 +25°C° 0 mm 3 mps 646 mmHg 35%

    Day after tomorrow, 18 October, Thursday

    Time Temperature Precipitation Wind Pressure Humidity
    00:00 +24°C° 0 mm 2 mps 645 mmHg 38%
    01:00 +23°C° 0 mm 2 mps 645 mmHg 41%
    02:00 +23°C° 0 mm 2 mps 644 mmHg 43%
    03:00 +21°C° 0 mm 2 mps 644 mmHg 46%
    04:00 +21°C° 0 mm 2 mps 645 mmHg 50%
    05:00 +20°C° 0 mm 2 mps 645 mmHg 53%
    06:00 +23°C° 0 mm 2 mps 646 mmHg 49%
    07:00 +25°C° 0 mm 2 mps 647 mmHg 45%
    08:00 +27°C° 0 mm 2 mps 648 mmHg 41%
    09:00 +29°C° 0 mm 2 mps 648 mmHg 35%
    10:00 +32°C° 0 mm 2 mps 648 mmHg 29%
    11:00 +35°C° 0 mm 2 mps 648 mmHg 24%
    12:00 +35°C° 0 mm 2 mps 647 mmHg 23%
    13:00 +35°C° 0 mm 2 mps 646 mmHg 23%
    14:00 +33°C° 0 mm 1 mps 646 mmHg 23%
    15:00 +33°C° 0 mm 1 mps 645 mmHg 24%
    16:00 +32°C° 0 mm 1 mps 645 mmHg 25%
    17:00 +31°C° 0 mm 1 mps 645 mmHg 27%
    18:00 +30°C° 0 mm 2 mps 645 mmHg 29%
    19:00 +29°C° 0 mm 2 mps 645 mmHg 31%
    20:00 +28°C° 0 mm 2 mps 646 mmHg 32%
    21:00 +27°C° 0 mm 2 mps 646 mmHg 35%
    22:00 +27°C° 0 mm 2 mps 646 mmHg 37%
    23:00 +26°C° 0 mm 3 mps 646 mmHg 39%

    19 October, Friday

    Time Temperature Precipitation Wind Pressure Humidity
    00:00 +25°C° 0 mm 2 mps 645 mmHg 43%
    01:00 +24°C° 0 mm 2 mps 645 mmHg 47%
    02:00 +23°C° 0 mm 2 mps 644 mmHg 51%
    03:00 +22°C° 0 mm 1 mps 644 mmHg 54%
    04:00 +22°C° 0 mm 1 mps 645 mmHg 56%
    05:00 +22°C° 0 mm 1 mps 645 mmHg 58%
    06:00 +24°C° 0 mm 2 mps 646 mmHg 53%
    07:00 +26°C° 0 mm 2 mps 647 mmHg 48%
    08:00 +28°C° 0 mm 2 mps 648 mmHg 43%
    09:00 +30°C° 0 mm 3 mps 648 mmHg 37%
    10:00 +33°C° 0 mm 3 mps 648 mmHg 30%
    11:00 +35°C° 0 mm 3 mps 648 mmHg 24%
    12:00 +35°C° 0 mm 3 mps 648 mmHg 23%
    13:00 +35°C° 0 mm 3 mps 647 mmHg 22%
    14:00 +36°C° 0 mm 3 mps 646 mmHg 20%
    15:00 +35°C° 0 mm 3 mps 646 mmHg 22%
    16:00 +33°C° 0 mm 3 mps 645 mmHg 24%
    17:00 +31°C° 0 mm 3 mps 645 mmHg 26%
    18:00 +30°C° 0 mm 3 mps 646 mmHg 29%
    19:00 +29°C° 0 mm 3 mps 646 mmHg 32%
    20:00 +28°C° 0 mm 3 mps 647 mmHg 34%
    21:00 +27°C° 0 mm 3 mps 647 mmHg 38%
    22:00 +26°C° 0 mm 3 mps 647 mmHg 42%
    23:00 +25°C° 0 mm 3 mps 646 mmHg 46%

    20 October, Saturday

    Time Temperature Precipitation Wind Pressure Humidity
    00:00 +24°C° 0 mm 3 mps 646 mmHg 49%
    01:00 +24°C° 0 mm 3 mps 645 mmHg 52%
    02:00 +23°C° 0 mm 2 mps 645 mmHg 55%
    03:00 +21°C° 0 mm 2 mps 645 mmHg 58%
    04:00 +21°C° 0 mm 2 mps 645 mmHg 60%
    05:00 +20°C° 0 mm 2 mps 646 mmHg 62%
    06:00 +23°C° 0 mm 2 mps 647 mmHg 55%
    07:00 +25°C° 0 mm 3 mps 648 mmHg 49%
    08:00 +27°C° 0 mm 3 mps 649 mmHg 43%
    09:00 +29°C° 0 mm 3 mps 649 mmHg 36%
    10:00 +33°C° 0 mm 3 mps 649 mmHg 30%
    11:00 +35°C° 0 mm 4 mps 649 mmHg 23%
    12:00 +35°C° 0 mm 4 mps 648 mmHg 21%
    13:00 +36°C° 0 mm 4 mps 647 mmHg 20%
    14:00 +37°C° 0 mm 4 mps 647 mmHg 18%
    15:00 +35°C° 0 mm 3 mps 646 mmHg 19%
    16:00 +34°C° 0 mm 3 mps 646 mmHg 21%
    17:00 +33°C° 0 mm 3 mps 646 mmHg 23%
    18:00 +31°C° 0 mm 3 mps 646 mmHg 25%
    19:00 +30°C° 0 mm 3 mps 647 mmHg 27%
    20:00 +28°C° 0 mm 3 mps 647 mmHg 29%
    21:00 +27°C° 0 mm 3 mps 647 mmHg 32%
    22:00 +26°C° 0 mm 3 mps 647 mmHg 36%
    23:00 +25°C° 0 mm 3 mps 647 mmHg 39%

    21 October, Sunday

    Time Temperature Precipitation Wind Pressure Humidity
    00:00 +24°C° 0 mm 3 mps 646 mmHg 43%
    01:00 +24°C° 0 mm 3 mps 646 mmHg 47%
    02:00 +22°C° 0 mm 3 mps 645 mmHg 50%
    03:00 +22°C° 0 mm 3 mps 645 mmHg 53%
    04:00 +21°C° 0 mm 3 mps 646 mmHg 56%
    05:00 +21°C° 0 mm 3 mps 646 mmHg 59%
    06:00 +22°C° 0 mm 3 mps 647 mmHg 53%
    07:00 +25°C° 0 mm 3 mps 648 mmHg 47%
    08:00 +27°C° 0 mm 3 mps 649 mmHg 41%
    09:00 +29°C° 0 mm 3 mps 649 mmHg 35%
    10:00 +31°C° 0 mm 3 mps 649 mmHg 29%
    11:00 +35°C° 0 mm 3 mps 649 mmHg 23%
    12:00 +35°C° 0 mm 3 mps 648 mmHg 22%
    13:00 +35°C° 0 mm 3 mps 648 mmHg 21%
    14:00 +35°C° 0 mm 3 mps 647 mmHg 19%
    15:00 +34°C° 0 mm 3 mps 647 mmHg 21%
    16:00 +33°C° 0 mm 3 mps 647 mmHg 24%
    17:00 +30°C° 0 mm 2 mps 647 mmHg 26%
    18:00 +29°C° 0 mm 3 mps 647 mmHg 28%
    19:00 +28°C° 0 mm 3 mps 648 mmHg 30%
    20:00 +27°C° 0 mm 3 mps 648 mmHg 33%
    21:00 +26°C° 0 mm 3 mps 648 mmHg 36%
    22:00 +26°C° 0 mm 3 mps 648 mmHg 40%
    23:00 +25°C° 0 mm 3 mps 648 mmHg 43%
    Show more